Content
SEND FEEDBACK

Daily
Averages
Monthly
Summary
United States of America

GRAHAM, NORTH CAROLINA


Home > North America > United States > North Carolina
Elevation: 66 feet     Latitude: 36 04N     Longitude: 079 24W

WEATHER
 
SELECT A DAY
Number of Records: 175,455;   Date Range: 7/1/98 - 11/22/14
 
SHARE

PRINT THIS DATA

[ ← Previous Day ]
WEATHER ALMANAC - FEBRUARY 16, 2014
[ Next Day → ]
[ °C ]   °F
Weather ElementAverageHighLow
Temperature38.2 °F51.1 °F (3:54 pm)30 °F (6:54 am)
Dewpoint20.5 °F26.1 °F (7:54 pm)12.9 °F (1:54 am)
Humidity50.2 %72 % (9:54 pm)34 % (1:54 pm)
Barometer30.07 in30.17 in (11:54 pm)30.01 in (2:54 pm)
Wind Speed4.5 mph11.5 mph (2:54 pm)
Wind Gust20.7 mph (2:54 pm)
Weather ElementAverage
Visibility10 mi
Wind DirectionSSE (148.3 °)

Weather ElementTotal
Precipitation---
Heating Degree Days24.5 (Base 65)
Averaged from 23 records on February 16, 2014
WEATHER CONDITIONS BREAKOUT
WIND DIRECTION BREAKOUT
WEATHER BY HOUR - FEBRUARY 16, 2014
[ °C ]   °F
Local TimeTemperatureDewpointHumidityBarometerVisibilityWind DirectionWind SpeedGust SpeedPrecipitationEventsConditions
1:54 AM30.9 °F12.9 °F47 %30.04 in10.0 miNNW (330°)5.8 mphPartly Cloudy
2:54 AM30.9 °F14.0 °F50 %30.05 in10.0 miWNW (300°)4.6 mphMostly Cloudy
3:54 AM30.9 °F16.0 °F54 %30.04 in10.0 miCalmOvercast
4:54 AM30.9 °F15.1 °F52 %30.06 in10.0 miCalmOvercast
5:54 AM30.9 °F18.0 °F59 %30.08 in10.0 miCalmOvercast
6:54 AM30.0 °F17.1 °F59 %30.07 in10.0 miCalmOvercast
7:54 AM30.9 °F16.0 °F54 %30.08 in10.0 miSouth (190°)3.5 mphMostly Cloudy
8:54 AM33.1 °F18.0 °F54 %30.10 in10.0 miCalmMostly Cloudy
9:54 AM37.0 °F17.1 °F44 %30.11 in10.0 miWest (260°)4.6 mphMostly Cloudy
10:54 AM39.0 °F19.0 °F45 %30.10 in10.0 miVariable4.6 mphScattered Clouds
11:54 AM43.0 °F19.0 °F38 %30.08 in10.0 miVariable4.6 mphClear
12:54 PM46.0 °F21.0 °F37 %30.05 in10.0 miSouth (180°)9.2 mphClear
1:54 PM48.0 °F21.0 °F34 %30.03 in10.0 miVariable5.8 mphScattered Clouds
2:54 PM50.0 °F24.1 °F36 %30.01 in10.0 miSW (230°)11.5 mph20.7 mphClear
3:54 PM51.1 °F25.0 °F36 %30.01 in10.0 miSW (220°)10.4 mphClear
4:54 PM50.0 °F24.1 °F36 %30.02 in10.0 miSSW (210°)11.5 mphClear
5:54 PM46.9 °F24.1 °F41 %30.04 in10.0 miSW (220°)5.8 mphClear
6:54 PM42.1 °F24.1 °F49 %30.07 in10.0 miCalmClear
7:54 PM37.9 °F26.1 °F62 %30.09 in10.0 miCalmClear
8:54 PM36.0 °F25.0 °F64 %30.11 in10.0 miWest (280°)3.5 mphClear
9:54 PM33.1 °F25.0 °F72 %30.13 in10.0 miWNW (290°)3.5 mphClear
10:54 PM34.0 °F25.0 °F70 %30.15 in10.0 miNNW (340°)5.8 mphClear
11:54 PM37.0 °F25.0 °F62 %30.17 in10.0 miNorth (360°)8.1 mphClear
Hourly data recorded from KBUY, located miles away from Graham, North Carolina







STORIES FROM OUR PARTNERS